Overview Statistics Trail Chart Weather Telemetry Raw packets
 

This is the latest recevied weather packets stored in our database for station/object WD7OO. If no packets are shown the sender has not sent any weather packets the latest 10 day(s).

<< 70 71 72 73 74 75 76 >>
Time Temp. Humidity Pressure Rain* Wind** Luminosity Snow
1788127387 21.67° C 95% 1017.6 hPa 3.05 mm - 13 W/m² -
1788127084 22.22° C 94% 1018 hPa 3.05 mm - 14 W/m² -
1788126780 22.22° C 94% 1017.9 hPa 1.78 mm - 14 W/m² -
1788126474 22.22° C 92% 1018 hPa 0 mm - 14 W/m² -
1788126169 22.22° C 92% 1018 hPa 0 mm - 16 W/m² -
1788125868 22.78° C 91% 1017.9 hPa 0 mm - 19 W/m² -
1788125564 23.33° C 90% 1018 hPa 0 mm - 22 W/m² -
1788125260 23.33° C 87% 1017.9 hPa 1.78 mm - 25 W/m² -
1788124955 23.89° C 86% 1017.7 hPa 0 mm - 23 W/m² -
1788124655 23.89° C 84% 1017.5 hPa 0 mm - 20 W/m² -
1788124354 24.44° C 83% 1017.5 hPa 0 mm - 19 W/m² -
1788124050 25° C 81% 1017.6 hPa 0 mm - 19 W/m² -
1788123749 25° C 80% 1017.7 hPa 0 mm - 20 W/m² -
1788123446 25.56° C 78% 1017.8 hPa 0 mm - 20 W/m² -
1788123141 25° C 77% 1017.7 hPa 0 mm - 21 W/m² -
1788122836 25° C 78% 1017.9 hPa 0 mm - 23 W/m² -
1788122535 25.56° C 78% 1018 hPa 0 mm - 23 W/m² -
1788122232 25.56° C 77% 1017.8 hPa 0 mm - 24 W/m² -
1788121927 25.56° C 75% 1017.6 hPa 0 mm - 29 W/m² -
1788121626 25.56° C 76% 1017.9 hPa 0 mm - 38 W/m² -
1788121323 25.56° C 76% 1017.6 hPa 0 mm - 55 W/m² -
1788121021 25.56° C 78% 1017.7 hPa 0 mm - 82 W/m² -
1788120716 25.56° C 77% 1017.7 hPa 0 mm - 111 W/m² -
1788120412 25.56° C 77% 1017.6 hPa 0 mm - 144 W/m² -
1788120111 25.56° C 75% 1017.5 hPa 0 mm - 184 W/m² -

* Rain latest hour (hover to see other rain measurements)
** Current wind speed in m/s (hover to see current wind gust speed)